Regional Weather Roundup
Issued by NWS Portland, ME

Current Version | Previous Version | Graphics & Text | Print | Product List | Glossary On
Versions: 1 2 3 4 5 6 7 8 9 10 11 12 13 14 15 16 17 18 19 20 21 22 23 24 25 26 27 28 29 30 31 32 33 34 35 36 37 38 39 40 41 42 43 44 45 46 47 48 49 50
000
ASUS41 KGYX 210510
RWRGYX
WEATHER ROUNDUP FOR MAINE AND NEW HAMPSHIRE
NATIONAL WEATHER SERVICE GRAY ME
100 AM EDT WED OCT 21 2020

MEZ002-005-006-010-012-015-018-020-021-024-026-027-029-210600-
MAINE

CITY           SKY/WX    TMP DP  RH WIND       PRES   REMARKS
PORTLAND       CLOUDY    57  55  93 NE6       30.33R
SANFORD        CLOUDY    57  55  93 NE7       30.32S
BAR HARBOR     CLOUDY    54  52  93 N8        30.34R
WISCASSET      CLOUDY    57  54  89 VRB3      30.35R
ROCKLAND       CLOUDY    56  55  97 NE7       30.34R
FRYEBURG       CLOUDY    54  52  93 CALM      30.34S
LEWISTONAUBURN CLOUDY    54  52  93 NE8       30.34S
AUGUSTA        LGT RAIN  50  48  93 N9        30.36R
WATERVILLE     LGT RAIN  50  48  93 NE5       30.33F
BANGOR         LGT RAIN  51  48  89 N7        30.36S
GREENVILLE       N/A     42  38  85 NW10      30.34R
MILLINOCKET    CLOUDY    46  41  82 N7        30.40R
HOULTON        PTCLDY    42  36  79 N8        30.39R
PRESQUE ISLE   PTCLDY    36  35  96 N3        30.43R
FRENCHVILLE    PTCLDY    34  30  85 CALM      30.41R
CARIBOU        PTCLDY    38  32  79 N3        30.41R
$$

NHZ002-005-008-009-011-012-014-210600-
NEW HAMPSHIRE

CITY           SKY/WX    TMP DP  RH WIND       PRES   REMARKS
PORTSMOUTH     CLOUDY    58  57  99 NE8       30.29S FOG
ROCHESTER      CLOUDY    59  55  87 NE6       30.31S
NASHUA         CLOUDY    59  59 100 CALM      30.30R
MANCHESTER     CLOUDY    62  57  83 E6        30.28R
CONCORD        CLOUDY    58  54  86 NW5       30.31R
LACONIA        LGT RAIN  56  56 100 NE7       30.32R
PLYMOUTH       CLOUDY    53  49  89 W5        30.32S
BERLIN         CLOUDY    48  44  86 CALM      30.34S
WHITEFIELD     CLOUDY    47  45  93 NW3       30.32S
JAFFREY        CLOUDY    57  54  89 CALM      30.30R
KEENE          CLOUDY    59  57  93 N7        30.29S
LEBANON        CLOUDY    52  48  86 NW3       30.32F
MT WASHINGTON  DRZL/FOG  41  41 100 SW18G25     N/A  VSB 0
$$

VTZ005-007-008-210600-
VERMONT

CITY           SKY/WX    TMP DP  RH WIND       PRES   REMARKS
ST JOHNSBURY     N/A     48  45  89 MISG      30.32F
MONTPELIER     CLOUDY    46  45  96 CALM      30.36F
BURLINGTON     LGT RAIN  48  42  80 N6        30.33F
$$

MAZ007-012-024-CTZ003-RIZ002-NYZ038-NYZ072-210600-
SOUTHERN NEW ENGLAND AND NY

CITY           SKY/WX    TMP DP  RH WIND       PRES   REMARKS
BOSTON         FOG       57  57 100 NE3       30.30R VSB 1/4
WORCESTER      FOG       58  56  93 CALM      30.30R VSB 1/4
NANTUCKET      FOG      N/A N/A N/A S6        30.28S VSB 1/4
PROVIDENCE     FOG       61  61 100 CALM      30.29R VSB 1/4
HARTFORD       FOG       60  58  92 CALM      30.27S VSB 1
ALBANY         CLOUDY    47  47 100 N7        30.30F
NEW YORK CITY  DRZL/FOG  63  60  90 SE5       30.27R VSB 1/4
$$

ANZ081-ANZ082-ANZ150-NHZ014-MEZ023>029-210600-
COASTAL MARINE OBSERVATIONS

STATION/POSITION TIME  TEMP    WIND        PRES    WAVE
                       AIR SEA DIR/SP/G            HT/PER
                 (UTC) (F)     (DEG/KT/KT) (MB)    (FT/S)
MOUNT DESERT ROC 0500           10/  4/  4 1027.2R
MATINICUS ROCK   0400   54      20/  6/  6 1025.9F
ISLE OF SHOALS   0400   56      40/  8/  9 1025.7R
JEFFREYS LEDGE   0405      58                N/A     3/ 8
$$

.............KEY..............
   WCI - WIND CHILL
   TC  - TEMPERATURE IN CELSIUS
   VSB - VISIBILITY IN MILES
   HX  - HEAT INDEX
   FAIR- INDICATES FEW OR NO CLOUDS BELOW 12,000 FT, WITH NO
         SIGNIFICANT WEATHER AND/OR OBSTRUCTIONS TO VISIBILITY.





USA.gov is the U.S. government's official web portal to all federal, state and local government web resources and services.